Powrót do katalogu

STARLINK-36322

AktywnyŁącznośćVLEO
NORAD 68522·PAYLOAD·🇺🇸 United States

Wystrzelony Mar 30, 2026 z Cape Canaveral Space Force Station

Loading…

Następne Przeloty (najbliższe 24 godziny)

TLE

ŚwieżeSource: CelesTrak SupGP

Epoka: Sep 14, 2026, 23:28 UTC

1 68522C 26068Q   26257.97826389  .00036316  00000+0  10736-2 0  2573
2 68522  53.1590 325.4745 0001154  86.7900 146.6453 15.34355448    11

Śledź STARLINK-36322 w czasie rzeczywistym z AllMySat

Download on the App Store